www.pogodaiklimat.ru

Погода и климат >> Архив погоды >> Канада >> Rankin Inlet


ПОГОДА в Rankin Inlet

  • Прогноз погоды в Rankin Inlet
  • Монитор погоды в Rankin Inlet
  • Климат города

АРХИВ ПОГОДЫ в Rankin Inlet

Время (UTC), дата Ветер
(напр.,м/с)
 
Видим.   Явления Облачность Т
(С)
Тd
(С)
f
(%)
Тe
(С)
Тes
(С)
Комфортность P
(гПа)
Po
(гПа)
Тmin
(С)
Tmax
(С)
R
(мм)
R24
(мм)
S
(см)
18 19.06 0 24 км 6/1 1000 м
[Cu med, cong Ac As Ci fib]
+11.9 +4.8 62 1008.9 1004.8 +4.4 +11.9
21 19.06 0 24 км 8/8 1000 м
[]
+12.1 +7.7 74 1008.8 1004.7
00 20.06 0 24 км слабый ливневой дождь 6/6 1000 м
[Cu med, cong]
+13.8 +10.0 78 1009.6 1005.5 +4.4 +13.8 1
03 20.06 0 24 км 5/5 1000 м
[]
+13.5 +11.6 88 1010.3 1006.2
06 20.06 0 24 км {ливн. осадки} 6/3 1000 м
[Sc Ci fib]
+14.5 +8.9 69 1011.2 1007.2 +4.4 +16.2 0.0
09 20.06 0 24 км 6/6 600 м
[]
+6.6 +3.8 82 1012.2 1008.1
12 20.06 0 24 км 9/8 600 м
[Sc Ci fib]
+7.5 +5.0 84 1013.2 1009.1 +6.3 +16.2
15 20.06 0 24 км 9/9 600 м
[]
+8.0 +2.8 70 1013.6 1009.5
18 20.06 0 24 км 4/1 600 м
[Sc Ci fib]
+11.4 +4.0 60 1013.1 1009.0 +5.5 +11.4
21 20.06 СЗ 4 24 км 3/3 600 м
[]
+11.3 +1.6 51 +9 +14 1012.6 1008.5
00 21.06 С 4 24 км 1/0 1000 м
[Sc Ci fib]
+12.1 -0.4 42 +11 +13 1011.8 1007.7 +5.5 +12.6
03 21.06 ЮЗ 4 24 км 5/0
[]
+5.7 +2.4 79 +2 +2 1011.1 1007.0
06 21.06 ЮЗ 4 24 км 8/0
[Ac As Ci fib]
+5.0 +2.7 85 +1 +1 1010.3 1006.2 +5.0 +12.6 22
09 21.06 ЮЗ 3 24 км 9/0
[]
+4.8 +3.2 89 +1 +1 1009.9 1005.8
12 21.06 Ю 2 12 км слабый дождь 10/6 600 м
[Sc]
+5.6 +4.8 95 +3 +3 1009.0 1004.9 +4.6 +12.6 1
15 21.06 ЮВ 2 24 км 10/10 50 м
[]
+7.1 +4.5 84 +5 +5 1008.3 1004.2
18 21.06 ЮВ 3 24 км слабый дождь 10/5 100 м
[Sc Ac As]
+6.7 +4.2 84 +4 +5 1007.7 1003.6 +4.6 +7.3 0.8
21 21.06 ЮВ 3 8000 м 9/9 100 м
[]
+4.6 +3.5 93 +1 +2 1007.3 1003.2
00 22.06 В 4 12 км слабый дождь 9/0 2000 м
[Ac As]
+3.6 +2.9 95 -1 -1 1007.1 1003.0 +3.4 +7.3 0.4
03 22.06 В 2 12 км 9/0 2000 м
[]
+3.6 +2.8 94 +1 +1 1007.2 1003.1
06 22.06 СВ 3 24 км {дождь} 6/0
[Ac trans]
+4.1 +3.5 96 0 0 1006.9 1002.8 +2.9 +7.3 0.2 20
09 22.06 С 4 24 км 8/0
[]
+5.0 +4.0 93 +1 +1 1006.8 1002.7
12 22.06 В 2 24 км 9/0
[Ac As]
+5.8 +3.9 88 +4 +5 1007.6 1003.5 +2.9 +7.3
15 22.06 ЮЗ 2 24 км 6/6 600 м
[]
+7.8 +5.0 82 +6 +10 1008.3 1004.2
18 22.06 ЮВ 4 24 км 10/8 600 м
[Sc Ac As]
+7.0 +3.1 76 +4 +4 1010.0 1005.9 +2.9 +9.9
21 22.06 Ю 2 24 км 10/10 1000 м
[]
+7.3 +2.5 72 +6 +6 1010.7 1006.6
00 23.06 Ю 4 24 км 5/4 1500 м
[Sc Ac As]
+7.6 +2.0 68 +5 +6 1011.5 1007.4 +4.1 +9.9
03 23.06 ЮЗ 4 24 км 9/0 2000 м
[]
+6.5 +2.8 77 +3 +3 1012.0 1007.9
06 23.06 СЗ 6 24 км 1/0 2000 м
[Ac trans]
+6.4 +3.2 80 +2 +2 1011.3 1007.2 +4.1 +9.9 16
09 23.06 С 8 24 км ясно +5.4 +2.7 83 -0 -0 1011.7 1007.6
12 23.06 С 6 24 км ясно +7.9 +3.7 75 +4 +5 1012.7 1008.6 +5.2 +9.9
15 23.06 Ю 3 24 км 4/4 600 м
[]
+9.8 +3.8 66 +8 +12 1013.4 1009.3
18 23.06 ЮВ 6 24 км 4/4 1000 м
[Sc]
+8.8 +2.8 66 +5 +9 1014.4 1010.3 +5.2 +11.6
21 23.06 ЮВ 6 24 км 4/4 1500 м
[]
+8.8 +2.4 64 +5 +7 1014.7 1010.6
00 24.06 ЮВ 5 24 км 4/4 1500 м
[Sc]
+8.4 +1.9 64 +5 +6 1015.5 1011.4 +5.2 +11.6
03 24.06 Ю 3 24 км 6/6 1500 м
[]
+7.1 +1.3 67 +4 +4 1015.7 1011.6
06 24.06 З 3 24 км 9/0 2000 м
[Ac As]
+6.2 +3.0 80 +3 +3 1015.6 1011.5 +5.2 +11.6 91
09 24.06 З 4 24 км 8/0 2000 м
[]
+6.8 +4.8 87 +3 +3 1014.9 1010.8
12 24.06 С 4 24 км 5/0 2000 м
[Ac As Ci fib]
+10.3 +5.2 71 +8 +9 1015.2 1011.1 +5.8 +11.6
15 24.06 С 6 24 км 3/3 1500 м
[]
+13.7 +3.2 49 +12 +14 1014.8 1010.7
18 24.06 СЗ 7 24 км 3/3 1500 м
[Cu hum]
+15.1 +2.1 41 +14 +16 1014.7 1010.6 +5.8 +15.3
21 24.06 СЗ 7 24 км 5/5 1500 м
[]
+16.3 +0.8 35 +15 +17 1014.2 1010.1
00 25.06 С 5 24 км 5/0
[Ac As]
+16.0 +3.1 42 +15 +16 1013.8 1009.7 +6.1 +17.0
03 25.06 СЗ 4 24 км 8/0 2000 м
[]
+12.9 +4.7 57 +11 +11 1013.5 1009.4
06 25.06 С 7 24 км слабый ливневой дождь 9/5 1500 м
[Sc diur, vesp Ac As]
+10.5 +6.9 78 +7 +7 1013.6 1009.5 +6.1 +17.0 0.0 20
09 25.06 С 10 24 км 8/8 1500 м
[]
+6.8 +5.2 90 +1 +1 1013.6 1009.5
12 25.06 С 10 24 км {ливн. осадки} 5/5 600 м
[Sc]
+6.9 +3.8 81 +1 +1 1014.0 1009.9 +6.0 +17.0 0.0
15 25.06 С 9 24 км 6/6 600 м
[]
+8.7 +3.8 71 +4 +4 1014.5 1010.4
18 25.06 СЗ 6 24 км 6/6 600 м
[Sc]
+11.9 +5.3 64 +9 +11 1014.4 1010.3 +6.0 +12.3
21 25.06 З 5 24 км 6/6 1000 м
[]
+13.7 +4.6 54 +12 +14 1013.8 1009.7
00 26.06 ЮЗ 3 24 км 6/4 1500 м
[Sc Ac As]
+13.5 +4.6 55 +13 +14 1013.4 1009.3 +6.0 +14.7
03 26.06 Ю 3 24 км 8/8 1500 м
[]
+8.0 +3.5 73 +5 +5 1012.6 1008.5
06 26.06 Ю 2 24 км 9/3 1500 м
[Sc Ac As Ci fib]
+7.2 +3.0 75 +5 +5 1012.2 1008.1 +6.0 +14.7 81
09 26.06 В 3 24 км 9/9 1500 м
[]
+4.9 +2.6 85 +2 +2 1011.8 1007.7
12 26.06 ЮВ 5 24 км 9/0
[Ac As Ci fib]
+3.8 +2.1 89 -1 -1 1012.0 1007.9 +3.6 +14.7
15 26.06 В 3 24 км 9/0
[]
+5.3 +2.8 84 +2 +6 1012.7 1008.6

 

Местоположение метеостанции Rankin Inlet (Канада): широта 62.82 долгота -92.11 высота над уровнем моря 31 м.

В архиве по умолчанию представлена погода в Rankin Inlet за последнюю неделю. Архивные данные за месяц целиком и за предыдущие месяцы, начиная с января 2011 года, Вы можете получить, выбрав интересующий диапазон дат из раскрывающегося списка и нажав кнопку "Ввод!".

Внимание! Время в таблицах - всемирное. Для получения местного времени необходимо прибавить поправку, которая в Rankin Inlet равна -6 ч.

Смотрите также архив погоды в соседних городах и на ближайших метеорологических станциях:

Погода в Arviat Climate (Канада) (217 км)
Погода в Arviat (Канада) (217 км)
Погода в Arviat Airport (Канада) (218 км)
Погода в Baker Lake Climate (Канада) (255 км)
Погода в Baker Lake Airport (Канада) (256 км)
Погода в Wager Bay (Канада) (364 км)
Погода в Back River MAPS (Канада) (419 км)
Погода в Coral Harbour Arpt (Канада) (460 км)
Погода в Churchill Climate (Канада) (468 км)
Погода в Dubawnt Lake (Канада) (486 км)

Пояснения к столбцам:

Ветер - указаны скорость ветра в м/с - средняя за 10 мин, порывы в срок и между сроками (в фигурных скобках) и направление, откуда дует ветер: С - северный, СВ - северо-восточный, В - восточный, ЮВ - юго-восточный, Ю - южный, ЮЗ - юго-западный, З - западный, СЗ - северо-западный.
Видимость - горизонтальная дальность видимости в метрах или километрах. При видимости от 1 до 10 км при отсутствии осадков обычно наблюдается дымка, при ухудшении видимости до 1 км и менее - туман. В сухую погоду видимость может ухудшаться дымом, пылью или мглою.
Явления - указаны атмосферные явления, наблюдавшиеся в срок или в последний час перед сроком; фигурными скобками обозначены явления, наблюдавшиеся между сроками (за 1-3 часа до срока); квадратными скобками обозначены град или гололедные отложения с указанием их диаметра в мм.
Облачность - указаны через наклонную черту общая и нижняя облачность в баллах и высота нижней границы облаков в метрах; квадратными скобками обозначены формы облаков: Ci - перистые, Cs - перисто-слоистые, Cc - перисто-кучевые, Ac - высококучевые, As - высокослоистые, Sc - слоисто-кучевые, Ns - слоисто-дождевые, Cu - кучевые, Cb - кучево-дождевые. Подробнее классификацию облаков см. в Атласе облаков (PDF).
T - Температура воздуха - температура, измеренная на высоте 2 м над землей.
Td - Температура точки росы - температура, при понижении до которой содержащийся в воздухе водяной пар достигнет насыщения.
f - Относительная влажность воздуха - влажноcть воздуха, измеренная на высоте 2 м над землей.
Te - Эффективная температура - температура, которую ощущает одетый по сезону человек в тени. Характеристика душности погоды. При расчете учитывается влияние влажности воздуха и скорости ветра на теплоощущения человека.
Tes - Эффективная температура на солнце - температура, которую ощущает человек, с поправкой на солнечный нагрев. Характеристика знойности погоды. Зависит от высоты солнца над горизонтом, облачности и скорости ветра. Ночью, в пасмурную погоду, а также при ветре 12 м/с и более поправка равна нулю.
P - Атмосферное давление - приведенное к уровню моря атмосферное давление.
Po - Атмосферное давление - измеренное на уровне метеостанции атмосферное давление.
Tmin - Минимальная температура - минимум температуры воздуха на высоте 2 м над землей.
Tmax - Максимальная температура - максимум температуры воздуха на высоте 2 м над землей.
R - Количество осадков - Количество выпавших осадков за период времени, мм. При наведении курсора мыши на число - период времени, за который выпало указанное количество осадков.
R24 - Количество осадков - Количество выпавших осадков за 24 часа, мм.
S - Снежный покров - Высота снежного покрова, см. При наведении курсора мыши на число - состояние снежного покрова и степень покрытия местности в баллах.